Hourly Data Report for April 29, 2020

CLYDE RIVER A
NUNAVUT
Current Station Operator: NAVCAN

70°29'09.000" N
68°31'01.000" W
26.50 m
2400804
71090
YCY

Download Data

Hourly Data (April 2020)
Hourly Data Report for April 29, 2020
TIME
LST
Temp Definition
°C
Dew Point Definition
°C
Rel Hum Definition
%
Precip. Amount Definition
mm

Wind Dir Definition
10's deg

Wind Spd Definition
km/h
Visibility Definition
km
Stn Press Definition
kPa
Hmdx Definition


Wind Chill Definition


Weather Definition


00:00 -19.8 -23.6 72 0.0 33 9 16.1 101.98   -27 LegendNANA
01:00 -18.5 -22.7 70 0.0 LegendMM 4 16.1 101.99   -22 LegendNANA
02:00 -19.5 -23.0 74 0.0 LegendMM 4 16.1 102.00   -23 LegendNANA
03:00 -21.5 -24.7 76 0.0 1 8 16.1 102.03   -28 LegendNANA
04:00 -19.6 -22.9 76 0.0 33 11 16.1 102.03   -27 LegendNANA
05:00 -17.3 -20.8 75 0.0 LegendMM 4 16.1 102.00   -20 LegendNANA
06:00 -15.0 -18.6 74 0.0 11 8 16.1 101.96   -20 LegendNANA
07:00 -12.5 -17.8 65 0.0 6 5 16.1 101.91   -16 LegendNANA
08:00 -11.5 -16.1 69 0.0 1 8 16.1 101.89   -16 LegendNANA
09:00 -10.2 -14.9 69 0.0 36 8 16.1 101.85   -15 LegendNANA
10:00 -9.4 -13.7 71 0.0 4 8 16.1 101.80   -14 LegendNANA
11:00 -7.9 -12.1 72 0.0 2 13 16.1 101.70   -14 LegendNANA
12:00 -5.0 -12.2 57 0.0 21 5 16.1 101.67   -7 LegendNANA
13:00 -4.7 -13.1 52 0.0 14 32 16.1 101.62   -13 Snow
14:00 -5.1 -12.7 55 0.0 13 24 16.1 101.58   -12 LegendNANA
15:00 -5.8 -12.4 60 0.0 14 28 16.1 101.53   -14 Snow
16:00 -5.2 -13.3 53 0.0 19 22 16.1 101.46   -12 LegendNANA
17:00 -7.1 -12.4 66 0.0 12 18 16.1 101.42   -14 LegendNANA
18:00 -9.8 -13.3 76 0.0 11 18 16.1 101.38   -17 LegendNANA
19:00 -10.7 -14.4 75 0.0 14 24 16.1 101.32   -19 LegendNANA
20:00 -10.0 -14.1 72 0.0 15 26 16.1 101.25   -19 LegendNANA
21:00 -9.4 -14.2 68 0.0 14 22 16.1 101.17   -17 LegendNANA
22:00 -10.1 -15.0 68 0.0 13 5 16.1 101.15   -13 LegendNANA
23:00 -8.5 -12.5 73 0.0 14 13 16.1 101.10   -14 LegendNANA

Notes on Data Quality.

Legend

  • E = Estimated
  • M = Missing
  • NA = Not Available*
  • [empty] = Indicates an unobserved value
Date modified: